カタログに戻る

COSMOS 1818 COOLANT

LostLEO
NORAD 50789·DEBRIS·🇷🇺 Russia

打ち上げ Feb 1, 1987 から Baikonur Cosmodrome

Loading…

次のパス (今後24時間)

TLE

古いSource: Space-Track

元期: Apr 19, 2024, 23:50 UTC

1 50789U 87011BE  24110.99362446  .00003014  00000-0  10600-2 0  9994
2 50789  65.0116 238.3923 0021719 276.6585 199.5124 14.36304060717372

AllMySatでCOSMOS 1818 COOLANTをリアルタイム追跡

Download on the App Store